CW2989 Weather Reports


Display with metric or nautical units.
time (UTC)temp
F
wind
direction
speed
MPH
gust
MPH
rain 1hr
in
rain 24hr
in
rain mn
in
humidity
%
barometer
mb
20240521154027 81 329 2.0 11.0 0.00 0.00 0.00 84 992.2
20240521153049 80 261 2.0 10.0 0.00 0.00 0.00 86 992.2
20240521152027 80 268 2.0 9.0 0.00 0.00 0.00 86 992.4
20240521151004 80 295 2.0 9.0 0.00 0.00 0.00 86 992.4
20240521150004 80 263 2.0 9.0 0.00 0.00 0.00 87 992.4
20240521145006 79 261 3.0 9.0 0.00 0.00 0.00 87 992.4
20240521143946 79 262 1.0 5.0 0.00 0.00 0.00 87 992.6
20240521142925 79 271 1.0 7.0 0.00 0.00 0.00 88 992.6
20240521140736 78 243 2.0 5.0 0.00 0.00 0.00 89 992.7
20240521135731 78 270 1.0 5.0 0.00 0.00 0.00 89 992.7
20240521134754 78 280 1.0 10.0 0.00 0.00 0.00 90 992.7
20240521133734 77 310 1.0 10.0 0.00 0.00 0.00 90 992.4
20240521132725 77 225 1.0 7.0 0.00 0.00 0.00 90 992.2
20240521131729 77 293 1.0 8.0 0.00 0.00 0.00 91 992.2
20240521130742 76 243 2.0 8.0 0.00 0.00 0.00 91 992.2
20240521125756 76 261 1.0 5.0 0.00 0.00 0.00 92 992.2
20240521124729 76 260 2.0 5.0 0.00 0.00 0.00 92 992.2
20240521123722 76 248 1.0 11.0 0.00 0.00 0.00 92 991.8
20240521122711 76 254 2.0 11.0 0.00 0.00 0.00 92 991.6
20240521121723 75 262 2.0 6.0 0.00 0.00 0.00 92 991.6
20240521120709 75 292 1.0 8.0 0.00 0.00 0.00 92 991.4
20240521110105 75 257 3.0 12.0 0.00 0.00 0.00 90 991.0
20240521105129 75 315 3.0 11.0 0.00 0.00 0.00 91 990.7
20240521104116 75 257 2.0 11.0 0.00 0.00 0.00 91 990.6
20240521103103 75 268 3.0 8.0 0.00 0.00 0.00 91 990.6
20240521102043 75 273 2.0 7.0 0.00 0.00 0.00 90 990.4
20240521095919 75 257 3.0 10.0 0.00 0.00 0.00 90 990.6
20240521094924 75 284 3.0 10.0 0.00 0.00 0.00 90 991.1
20240521093911 75 324 2.0 9.0 0.00 0.00 0.00 89 990.7
20240521092924 75 265 3.0 9.0 0.00 0.00 0.00 89 990.7
20240521091905 75 247 3.0 9.0 0.00 0.00 0.00 88 990.9
20240521090920 75 253 2.0 10.0 0.00 0.00 0.00 88 991.1
20240521085943 75 258 2.0 10.0 0.00 0.00 0.00 88 991.1
20240521084939 75 253 3.0 9.0 0.00 0.00 0.00 88 991.0
20240521083906 75 260 2.0 11.0 0.00 0.00 0.00 88 991.2
20240521082831 75 260 3.0 13.0 0.00 0.00 0.00 88 991.1
20240521081846 75 244 4.0 13.0 0.00 0.00 0.00 88 991.1
20240521080817 75 226 3.0 12.0 0.00 0.00 0.00 89 991.2
20240521075806 75 268 2.0 8.0 0.00 0.00 0.00 89 991.2
20240521074801 75 297 3.0 10.0 0.00 0.00 0.00 88 991.2
20240521072618 75 283 4.0 14.0 0.00 0.00 0.00 87 991.6
20240521071545 75 279 4.0 14.0 0.00 0.00 0.00 87 991.6
20240521070557 75 355 3.0 14.0 0.00 0.00 0.00 88 991.7
20240521064525 76 219 4.0 15.0 0.00 0.00 0.00 88 991.6
20240521063547 76 281 3.0 11.0 0.00 0.00 0.00 88 991.7
20240521061447 76 254 4.0 12.0 0.00 0.00 0.00 88 991.7
20240521060420 77 300 3.0 13.0 0.00 0.00 0.00 88 991.7
20240521055425 77 265 3.0 13.0 0.00 0.00 0.00 87 992.1
20240521054421 77 233 4.0 12.0 0.00 0.00 0.00 87 992.1
20240521052215 78 238 5.0 15.0 0.00 0.00 0.00 85 992.1
20240521051219 78 250 6.0 15.0 0.00 0.00 0.00 84 992.2
20240521050226 79 238 5.0 14.0 0.00 0.00 0.00 83 992.2
20240521045200 79 300 3.0 11.0 0.00 0.00 0.00 81 992.2
20240521044159 79 245 3.0 14.0 0.00 0.00 0.00 80 992.2
20240521043131 80 281 4.0 14.0 0.00 0.00 0.00 78 992.2
20240521042149 80 257 2.0 8.0 0.00 0.00 0.00 76 991.9
20240521041144 80 256 3.0 13.0 0.00 0.00 0.00 75 992.1
20240521035014 80 258 2.0 8.0 0.00 0.00 0.00 73 992.0
20240521034012 80 259 3.0 8.0 0.00 0.00 0.00 73 992.0
20240521033026 81 262 2.0 8.0 0.00 0.00 0.00 74 992.0
20240521032009 81 242 3.0 9.0 0.00 0.00 0.00 73 991.8
20240521031003 81 245 4.0 10.0 0.00 0.00 0.00 73 991.6
20240521030022 82 271 4.0 11.0 0.00 0.00 0.00 72 991.6
20240521025011 82 276 4.0 11.0 0.00 0.00 0.00 72 991.4
20240521023943 82 301 4.0 11.0 0.00 0.00 0.00 72 991.2
20240521015521 83 255 2.0 10.0 0.00 0.00 0.00 71 991.1
20240521014447 84 262 3.0 10.0 0.00 0.00 0.00 70 991.1
20240521013447 84 249 2.0 8.0 0.00 0.00 0.00 70 990.9
20240521011251 85 290 3.0 9.0 0.00 0.00 0.00 67 990.6
20240521010312 86 259 3.0 6.0 0.00 0.00 0.00 65 990.6
20240521004219 86 259 4.0 10.0 0.00 0.00 0.00 63 990.6
20240521003220 87 269 3.0 10.0 0.00 0.00 0.00 64 990.6
20240521002213 87 256 2.0 11.0 0.00 0.00 0.00 64 990.5
20240521001142 87 234 4.0 11.0 0.00 0.00 0.00 64 990.6
20240521000139 88 254 3.0 9.0 0.00 0.00 0.00 63 990.6
20240520235138 88 240 3.0 9.0 0.00 0.00 0.00 63 990.6
20240520234120 88 275 3.0 9.0 0.00 0.00 0.00 62 990.8
20240520233127 88 259 2.0 6.0 0.00 0.00 0.00 63 990.8
20240520232134 89 277 2.0 9.0 0.00 0.00 0.00 64 990.7
20240520231157 88 244 3.0 9.0 0.00 0.00 0.00 63 990.7
20240520230138 88 265 3.0 11.0 0.00 0.00 0.00 62 990.7
20240520223932 89 254 3.0 10.0 0.00 0.00 0.00 62 991.1
20240520221800 89 338 2.0 6.0 0.00 0.00 0.00 61 990.9
20240520220758 89 261 2.0 12.0 0.00 0.00 0.00 60 991.1
20240520214633 90 257 3.0 10.0 0.00 0.00 0.00 59 991.1
20240520213635 89 251 4.0 10.0 0.00 0.00 0.00 59 991.4
20240520212650 90 238 3.0 11.0 0.00 0.00 0.00 60 991.7
20240520210501 89 238 3.0 9.0 0.00 0.00 0.00 61 991.9
20240520205525 89 250 3.0 17.0 0.00 0.00 0.00 61 992.1
20240520204518 89 271 3.0 17.0 0.00 0.00 0.00 61 992.1
20240520203540 89 262 4.0 12.0 0.00 0.00 0.00 61 992.2
20240520201511 89 268 2.0 11.0 0.00 0.00 0.00 62 992.4
20240520200522 89 304 3.0 10.0 0.00 0.00 0.00 64 992.7
20240520195524 89 245 3.0 11.0 0.00 0.00 0.00 60 992.7
20240520194513 88 260 3.0 11.0 0.00 0.00 0.00 63 992.7
20240520193528 88 259 3.0 9.0 0.00 0.00 0.00 64 992.8
20240520192519 88 246 4.0 12.0 0.00 0.00 0.00 63 993.2
20240520190313 88 275 3.0 11.0 0.00 0.00 0.00 66 993.3
20240520185337 87 251 3.0 11.0 0.00 0.00 0.00 63 993.3
20240520183239 87 302 2.0 8.0 0.00 0.00 0.00 66 993.3
20240520182244 86 245 4.0 13.0 0.00 0.00 0.00 67 993.6
20240520180053 85 286 4.0 11.0 0.00 0.00 0.00 68 993.9
20240520175100 85 257 2.0 8.0 0.00 0.00 0.00 67 993.9
20240520174051 85 263 4.0 12.0 0.00 0.00 0.00 68 993.9
20240520171932 84 294 3.0 10.0 0.00 0.00 0.00 72 994.1
20240520165815 84 307 2.0 9.0 0.00 0.00 0.00 71 994.5
20240520164816 84 311 2.0 9.0 0.00 0.00 0.00 71 994.5
20240520163747 83 294 2.0 10.0 0.00 0.00 0.00 72 994.8
20240520162734 82 253 3.0 13.0 0.00 0.00 0.00 70 994.7
20240520160608 82 269 1.0 5.0 0.00 0.00 0.00 72 994.5
20240520155554 82 294 0.0 8.0 0.00 0.00 0.00 73 994.6